Weather History for Marion, OH

Change the Weather History Date:

Wednesday, January 2, 2013

  Actual Average (KDLZ) Record (KDLZ)
Temperature  
Mean Temperature 13 °F -  
Max Temperature 21 °F 34 °F 63 °F (1985)
Min Temperature 5 °F 18 °F -5 °F (1968)
Degree Days  
Heating Degree Days 52    
Moisture  
Dew Point 8 °F    
Average Humidity 84    
Maximum Humidity 100    
Minimum Humidity 68    
Precipitation  
Precipitation 0.00 in - - ()
Sea Level Pressure  
Sea Level Pressure 30.21 in    
Wind  
Wind Speed 3 mph (WSW)    
Max Wind Speed 6 mph    
Max Gust Speed -    
Visibility 7 miles    
Events      
Averages and records for this station are not official NWS values.
T = Trace of Precipitation, MM = Missing Value Source: NWS Daily Summary

Daily Weather History Graph

Daily Weather History Graph

Search for Another Location

Airport:

Trip Planner

Search our weather history database for the weather conditions in past years. The results will help you decide how hot, cold, wet, or windy it might be!

Date:

Astronomy

Jan. 02, 2013 Rise Set
Actual Time 7:56 AM EST 5:17 PM EST
Civil Twilight 7:25 AM EST 5:47 PM EST
Nautical Twilight 6:51 AM EST 6:21 PM EST
Astronomical Twilight 6:18 AM EST 6:55 PM EST
Moon 10:50 PM EST (1/2) 10:35 AM EST (1/2)
Length of Visible Light 10h 22m
Length of Day
9h 20m
Waning Gibbous, 75% of the Moon is Illuminated
Jan 2
Waning Gibbous
Jan 4
Last Quarter
Jan 11
New
Jan 18
First Quarter
Jan 26
Full

Hourly Weather History & Observations

Time (EST) Temp. Windchill Dew Point Humidity Pressure Visibility Wind Dir Wind Speed Gust Speed Precip Events Conditions
12:53 AM 10.9 °F 4.7 °F 8.1 °F 88% 30.15 in 9.0 mi South 3.5 mph - N/A   Mostly Cloudy
1:53 AM 9.0 °F 0.6 °F 7.0 °F 92% 30.15 in 8.0 mi SW 4.6 mph - N/A   Partly Cloudy
2:53 AM 8.1 °F -0.5 °F 6.1 °F 92% 30.16 in 9.0 mi SSW 4.6 mph - N/A   Clear
3:53 AM 14.0 °F 6.5 °F 10.0 °F 84% 30.17 in 9.0 mi West 4.6 mph - N/A   Scattered Clouds
4:53 AM 14.0 °F 6.5 °F 10.9 °F 88% 30.18 in 8.0 mi West 4.6 mph - N/A   Clear
5:53 AM 12.0 °F 5.9 °F 10.0 °F 92% 30.19 in 6.0 mi West 3.5 mph - N/A   Clear
6:53 AM 12.0 °F 5.9 °F 9.0 °F 88% 30.20 in 3.0 mi WSW 3.5 mph - N/A   Clear
7:05 AM 10.4 °F - 8.6 °F 92% 30.14 in 2.5 mi Calm Calm - N/A   Clear
7:26 AM 10.4 °F - 8.6 °F 92% 30.14 in 1.8 mi Calm Calm - N/A   Clear
7:43 AM 6.8 °F -0.1 °F 6.8 °F 100% 30.14 in 2.0 mi SSW 3.5 mph - N/A   Clear
7:53 AM 5.0 °F -2.1 °F 1.9 °F 87% 30.22 in 2.5 mi SSW 3.5 mph - N/A   Clear
8:04 AM 5.0 °F -2.1 °F 1.4 °F 85% 30.15 in 1.8 mi SSW 3.5 mph - N/A   Clear
8:11 AM 5.0 °F - 3.2 °F 92% 30.15 in 2.0 mi Calm Calm - N/A   Clear
8:25 AM 6.8 °F -0.1 °F 3.2 °F 85% 30.15 in 3.0 mi SW 3.5 mph - N/A   Clear
8:35 AM 5.0 °F -4.1 °F 1.4 °F 85% 30.15 in 2.5 mi SW 4.6 mph - N/A   Clear
8:53 AM 7.0 °F -1.7 °F 5.0 °F 92% 30.22 in 3.0 mi SW 4.6 mph - N/A   Clear
9:53 AM 14.0 °F 6.5 °F 10.9 °F 88% 30.25 in 6.0 mi WSW 4.6 mph - N/A   Clear
10:53 AM 16.0 °F 7.4 °F 10.9 °F 81% 30.27 in 9.0 mi West 5.8 mph - N/A   Clear
11:53 AM 17.1 °F 10.0 °F 12.0 °F 81% 30.27 in 10.0 mi WSW 4.6 mph - N/A   Clear
12:53 PM 19.0 °F 11.1 °F 12.0 °F 74% 30.25 in 10.0 mi WSW 5.8 mph - N/A   Clear
1:53 PM 21.0 °F 14.6 °F 12.0 °F 68% 30.24 in 10.0 mi WNW 4.6 mph - N/A   Clear
2:53 PM 19.9 °F 12.1 °F 10.9 °F 68% 30.24 in 10.0 mi NW 5.8 mph - N/A   Clear
3:53 PM 19.9 °F - 10.9 °F 68% 30.24 in 10.0 mi Calm Calm - N/A   Clear
4:53 PM 17.1 °F - 9.0 °F 71% 30.24 in 10.0 mi Calm Calm - N/A   Clear
5:53 PM 16.0 °F - 10.0 °F 77% 30.25 in 10.0 mi Calm Calm - N/A   Clear
6:53 PM 14.0 °F - 8.1 °F 77% 30.27 in 10.0 mi Calm Calm - N/A   Clear
7:53 PM 14.0 °F - 8.1 °F 77% 30.27 in 10.0 mi Calm Calm - N/A   Clear
9:53 PM 9.0 °F - 5.0 °F 84% 30.27 in 9.0 mi Calm Calm - N/A   Clear
10:53 PM 7.0 °F - 3.9 °F 87% 30.27 in 8.0 mi Calm Calm - N/A   Clear